Year,Month,Day,Hour,Minute,Value (Times are PST for temperature in C)
2012,09,17,00,00,13.60
2012,09,17,00,01,13.50
2012,09,17,00,02,13.50
2012,09,17,00,03,13.50
2012,09,17,00,04,13.40
2012,09,17,00,05,13.40
2012,09,17,00,06,13.40
2012,09,17,00,07,13.40
2012,09,17,00,08,13.40
2012,09,17,00,09,13.40
2012,09,17,00,10,13.30
2012,09,17,00,11,13.30
2012,09,17,00,12,13.30
2012,09,17,00,13,13.30
2012,09,17,00,14,13.30
2012,09,17,00,15,13.30
2012,09,17,00,16,13.30
2012,09,17,00,17,13.30
2012,09,17,00,18,13.30
2012,09,17,00,19,13.30
2012,09,17,00,20,13.30
2012,09,17,00,21,13.30
2012,09,17,00,22,13.30
2012,09,17,00,23,13.30
2012,09,17,00,24,13.30
2012,09,17,00,25,13.20
2012,09,17,00,26,13.20
2012,09,17,00,27,13.20
2012,09,17,00,28,13.20
2012,09,17,00,29,13.20
2012,09,17,00,30,13.20
2012,09,17,00,31,13.10
2012,09,17,00,32,13.10
2012,09,17,00,33,13.10
2012,09,17,00,34,13.10
2012,09,17,00,35,13.10
2012,09,17,00,36,13.10
2012,09,17,00,37,13.10
2012,09,17,00,38,13.00
2012,09,17,00,39,13.00
2012,09,17,00,40,13.00
2012,09,17,00,41,13.00
2012,09,17,00,42,13.00
2012,09,17,00,43,13.00
2012,09,17,00,44,13.00
2012,09,17,00,45,12.90
2012,09,17,00,46,12.90
2012,09,17,00,47,12.90
2012,09,17,00,48,12.90
2012,09,17,00,49,12.90
2012,09,17,00,50,12.80
2012,09,17,00,51,12.80
2012,09,17,00,52,12.80
2012,09,17,00,53,12.80
2012,09,17,00,54,12.80
2012,09,17,00,55,12.80
2012,09,17,00,56,12.80
2012,09,17,00,57,12.80
2012,09,17,00,58,12.80
2012,09,17,00,59,12.80
2012,09,17,01,00,12.80
2012,09,17,01,01,12.80
2012,09,17,01,02,12.80
2012,09,17,01,03,12.80
2012,09,17,01,04,12.80
2012,09,17,01,05,12.80
2012,09,17,01,06,12.80
2012,09,17,01,07,12.80
2012,09,17,01,08,12.70
2012,09,17,01,09,12.70
2012,09,17,01,10,12.70
2012,09,17,01,11,12.70
2012,09,17,01,12,12.70
2012,09,17,01,13,12.70
2012,09,17,01,14,12.70
2012,09,17,01,15,12.70
2012,09,17,01,16,12.70
2012,09,17,01,17,12.70
2012,09,17,01,18,12.70
2012,09,17,01,19,12.70
2012,09,17,01,20,12.70
2012,09,17,01,21,12.70
2012,09,17,01,22,12.70
2012,09,17,01,23,12.70
2012,09,17,01,24,12.60
2012,09,17,01,25,12.60
2012,09,17,01,26,12.60
2012,09,17,01,27,12.60
2012,09,17,01,28,12.60
2012,09,17,01,29,12.60
2012,09,17,01,30,12.60
2012,09,17,01,31,12.60
2012,09,17,01,32,12.60
2012,09,17,01,33,12.60
2012,09,17,01,34,12.60
2012,09,17,01,35,12.50
2012,09,17,01,36,12.50
2012,09,17,01,37,12.50
2012,09,17,01,38,12.50
2012,09,17,01,39,12.50
2012,09,17,01,40,12.50
2012,09,17,01,41,12.50
2012,09,17,01,42,12.60
2012,09,17,01,43,12.60
2012,09,17,01,44,12.60
2012,09,17,01,45,12.70
2012,09,17,01,46,12.70
2012,09,17,01,47,12.70
2012,09,17,01,48,12.70
2012,09,17,01,49,12.70
2012,09,17,01,50,12.70
2012,09,17,01,51,12.70
2012,09,17,01,52,12.70
2012,09,17,01,53,12.70
2012,09,17,01,54,12.70
2012,09,17,01,55,12.70
2012,09,17,01,56,12.70
2012,09,17,01,57,12.70
2012,09,17,01,58,12.70
2012,09,17,01,59,12.70
2012,09,17,02,00,12.70
2012,09,17,02,01,12.70
2012,09,17,02,02,12.70
2012,09,17,02,03,12.60
2012,09,17,02,04,12.60
2012,09,17,02,05,12.60
2012,09,17,02,06,12.50
2012,09,17,02,07,12.50
2012,09,17,02,08,12.50
2012,09,17,02,09,12.50
2012,09,17,02,10,12.50
2012,09,17,02,11,12.50
2012,09,17,02,12,12.50
2012,09,17,02,13,12.50
2012,09,17,02,14,12.50
2012,09,17,02,15,12.50
2012,09,17,02,16,12.50
2012,09,17,02,17,12.60
2012,09,17,02,18,12.60
2012,09,17,02,19,12.60
2012,09,17,02,20,12.60
2012,09,17,02,21,12.60
2012,09,17,02,22,12.70
2012,09,17,02,23,12.70
2012,09,17,02,24,12.70
2012,09,17,02,25,12.70
2012,09,17,02,26,12.70
2012,09,17,02,27,12.70
2012,09,17,02,28,12.70
2012,09,17,02,29,12.70
2012,09,17,02,30,12.60
2012,09,17,02,31,12.60
2012,09,17,02,32,12.60
2012,09,17,02,33,12.60
2012,09,17,02,34,12.50
2012,09,17,02,35,12.50
2012,09,17,02,36,12.50
2012,09,17,02,37,12.50
2012,09,17,02,38,12.50
2012,09,17,02,39,12.40
2012,09,17,02,40,12.40
2012,09,17,02,41,12.40
2012,09,17,02,42,12.40
2012,09,17,02,43,12.40
2012,09,17,02,44,12.40
2012,09,17,02,45,12.40
2012,09,17,02,46,12.40
2012,09,17,02,47,12.40
2012,09,17,02,48,12.40
2012,09,17,02,49,12.40
2012,09,17,02,50,12.40
2012,09,17,02,51,12.40
2012,09,17,02,52,12.40
2012,09,17,02,53,12.40
2012,09,17,02,54,12.30
2012,09,17,02,55,12.30
2012,09,17,02,56,12.30
2012,09,17,02,57,12.40
2012,09,17,02,58,12.40
2012,09,17,02,59,12.40
2012,09,17,03,00,12.40
2012,09,17,03,01,12.40
2012,09,17,03,02,12.30
2012,09,17,03,03,12.40
2012,09,17,03,04,12.40
2012,09,17,03,05,12.50
2012,09,17,03,06,12.50
2012,09,17,03,07,12.60
2012,09,17,03,08,12.60
2012,09,17,03,09,12.60
2012,09,17,03,10,12.60
2012,09,17,03,11,12.60
2012,09,17,03,12,12.60
2012,09,17,03,13,12.60
2012,09,17,03,14,12.70
2012,09,17,03,15,12.70
2012,09,17,03,16,12.80
2012,09,17,03,17,12.80
2012,09,17,03,18,12.90
2012,09,17,03,19,12.90
2012,09,17,03,20,12.90
2012,09,17,03,21,13.00
2012,09,17,03,22,13.00
2012,09,17,03,23,13.00
2012,09,17,03,24,13.00
2012,09,17,03,25,13.00
2012,09,17,03,26,13.00
2012,09,17,03,27,12.90
2012,09,17,03,28,12.90
2012,09,17,03,29,12.90
2012,09,17,03,30,12.90
2012,09,17,03,31,12.90
2012,09,17,03,32,12.90
2012,09,17,03,33,12.80
2012,09,17,03,34,12.80
2012,09,17,03,35,12.80
2012,09,17,03,36,12.80
2012,09,17,03,37,12.80
2012,09,17,03,38,12.80
2012,09,17,03,39,12.80
2012,09,17,03,40,12.70
2012,09,17,03,41,12.70
2012,09,17,03,42,12.70
2012,09,17,03,43,12.70
2012,09,17,03,44,12.60
2012,09,17,03,45,12.60
2012,09,17,03,46,12.60
2012,09,17,03,47,12.50
2012,09,17,03,48,12.50
2012,09,17,03,49,12.50
2012,09,17,03,50,12.50
2012,09,17,03,51,12.50
2012,09,17,03,52,12.50
2012,09,17,03,53,12.50
2012,09,17,03,54,12.50
2012,09,17,03,55,12.50
2012,09,17,03,56,12.50
2012,09,17,03,57,12.60
2012,09,17,03,58,12.60
2012,09,17,03,59,12.60
2012,09,17,04,00,12.50
2012,09,17,04,01,12.50
2012,09,17,04,02,12.50
2012,09,17,04,03,12.50
2012,09,17,04,04,12.50
2012,09,17,04,05,12.40
2012,09,17,04,06,12.50
2012,09,17,04,07,12.50
2012,09,17,04,08,12.50
2012,09,17,04,09,12.60
2012,09,17,04,10,12.60
2012,09,17,04,11,12.60
2012,09,17,04,12,12.60
2012,09,17,04,13,12.60
2012,09,17,04,14,12.60
2012,09,17,04,15,12.60
2012,09,17,04,16,12.50
2012,09,17,04,17,12.50
2012,09,17,04,18,12.50
2012,09,17,04,19,12.50
2012,09,17,04,20,12.50
2012,09,17,04,21,12.50
2012,09,17,04,22,12.50
2012,09,17,04,23,12.50
2012,09,17,04,24,12.50
2012,09,17,04,25,12.50
2012,09,17,04,26,12.50
2012,09,17,04,27,12.40
2012,09,17,04,28,12.40
2012,09,17,04,29,12.40
2012,09,17,04,30,12.40
2012,09,17,04,31,12.30
2012,09,17,04,32,12.30
2012,09,17,04,33,12.30
2012,09,17,04,34,12.30
2012,09,17,04,35,12.30
2012,09,17,04,36,12.30
2012,09,17,04,37,12.30
2012,09,17,04,38,12.20
2012,09,17,04,39,12.20
2012,09,17,04,40,12.20
2012,09,17,04,41,12.10
2012,09,17,04,42,12.10
2012,09,17,04,43,12.00
2012,09,17,04,44,12.00
2012,09,17,04,45,12.00
2012,09,17,04,46,12.10
2012,09,17,04,47,12.10
2012,09,17,04,48,12.20
2012,09,17,04,49,12.20
2012,09,17,04,50,12.30
2012,09,17,04,51,12.40
2012,09,17,04,52,12.50
2012,09,17,04,53,12.70
2012,09,17,04,54,12.80
2012,09,17,04,55,12.90
2012,09,17,04,56,13.00
2012,09,17,04,57,13.10
2012,09,17,04,58,13.20
2012,09,17,04,59,13.20
2012,09,17,05,00,13.30
2012,09,17,05,01,13.30
2012,09,17,05,02,13.30
2012,09,17,05,03,13.30
2012,09,17,05,04,13.30
2012,09,17,05,05,13.30
2012,09,17,05,06,13.30
2012,09,17,05,07,13.30
2012,09,17,05,08,13.30
2012,09,17,05,09,13.30
2012,09,17,05,10,13.20
2012,09,17,05,11,13.10
2012,09,17,05,12,13.10
2012,09,17,05,13,13.00
2012,09,17,05,14,13.00
2012,09,17,05,15,12.90
2012,09,17,05,16,12.80
2012,09,17,05,17,12.80
2012,09,17,05,18,12.80
2012,09,17,05,19,12.80
2012,09,17,05,20,12.80
2012,09,17,05,21,12.70
2012,09,17,05,22,12.70
2012,09,17,05,23,12.70
2012,09,17,05,24,12.60
2012,09,17,05,25,12.60
2012,09,17,05,26,12.50
2012,09,17,05,27,12.50
2012,09,17,05,28,12.40
2012,09,17,05,29,12.40
2012,09,17,05,30,12.30
2012,09,17,05,31,12.30
2012,09,17,05,32,12.30
2012,09,17,05,33,12.20
2012,09,17,05,34,12.10
2012,09,17,05,35,12.10
2012,09,17,05,36,12.10
2012,09,17,05,37,12.00
2012,09,17,05,38,12.00
2012,09,17,05,39,12.00
2012,09,17,05,40,11.90
2012,09,17,05,41,11.90
2012,09,17,05,42,11.90
2012,09,17,05,43,11.90
2012,09,17,05,44,11.90
2012,09,17,05,45,12.00
2012,09,17,05,46,12.00
2012,09,17,05,47,12.00
2012,09,17,05,48,12.00
2012,09,17,05,49,12.00
2012,09,17,05,50,12.00
2012,09,17,05,51,12.10
2012,09,17,05,52,12.10
2012,09,17,05,53,12.10
2012,09,17,05,54,12.20
2012,09,17,05,55,12.20
2012,09,17,05,56,12.20
2012,09,17,05,57,12.20
2012,09,17,05,58,12.20
2012,09,17,05,59,12.20
2012,09,17,06,00,12.20
2012,09,17,06,01,12.10
2012,09,17,06,02,12.10
2012,09,17,06,03,12.10
2012,09,17,06,04,12.10
2012,09,17,06,05,12.10
2012,09,17,06,06,12.00
2012,09,17,06,07,12.00
2012,09,17,06,08,12.00
2012,09,17,06,09,12.00
2012,09,17,06,10,11.90
2012,09,17,06,11,11.90
2012,09,17,06,12,11.90
2012,09,17,06,13,11.90
2012,09,17,06,14,11.90
2012,09,17,06,15,11.90
2012,09,17,06,16,11.90
2012,09,17,06,17,11.80
2012,09,17,06,18,11.80
2012,09,17,06,19,11.80
2012,09,17,06,20,11.80
2012,09,17,06,21,11.80
2012,09,17,06,22,11.80
2012,09,17,06,23,11.80
2012,09,17,06,24,11.80
2012,09,17,06,25,11.80
2012,09,17,06,26,11.80
2012,09,17,06,27,11.80
2012,09,17,06,28,11.80
2012,09,17,06,29,11.80
2012,09,17,06,30,11.80
2012,09,17,06,31,11.80
2012,09,17,06,32,11.80
2012,09,17,06,33,11.80
2012,09,17,06,34,11.80
2012,09,17,06,35,11.80
2012,09,17,06,36,11.80
2012,09,17,06,37,11.90
2012,09,17,06,38,11.90
2012,09,17,06,39,11.90
2012,09,17,06,40,11.90
2012,09,17,06,41,11.90
2012,09,17,06,42,11.90
2012,09,17,06,43,11.90
2012,09,17,06,44,11.90
2012,09,17,06,45,11.90
2012,09,17,06,46,11.90
2012,09,17,06,47,11.90
2012,09,17,06,48,12.00
2012,09,17,06,49,12.00
2012,09,17,06,50,12.00
2012,09,17,06,51,12.00
2012,09,17,06,52,12.00
2012,09,17,06,53,12.10
2012,09,17,06,54,12.10
2012,09,17,06,55,12.20
2012,09,17,06,56,12.20
2012,09,17,06,57,12.30
2012,09,17,06,58,12.30
2012,09,17,06,59,12.30
2012,09,17,07,00,12.30
2012,09,17,07,01,12.30
2012,09,17,07,02,12.30
2012,09,17,07,03,12.20
2012,09,17,07,04,12.20
2012,09,17,07,05,12.10
2012,09,17,07,06,12.10
2012,09,17,07,07,12.00
2012,09,17,07,08,12.00
2012,09,17,07,09,11.90
2012,09,17,07,10,11.90
2012,09,17,07,11,11.90
2012,09,17,07,12,11.90
2012,09,17,07,13,11.90
2012,09,17,07,14,12.00
2012,09,17,07,15,12.00
2012,09,17,07,16,12.00
2012,09,17,07,17,12.00
2012,09,17,07,18,12.10
2012,09,17,07,19,12.10
2012,09,17,07,20,12.10
2012,09,17,07,21,12.10
2012,09,17,07,22,12.20
2012,09,17,07,23,12.20
2012,09,17,07,24,12.20
2012,09,17,07,25,12.30
2012,09,17,07,26,12.30
2012,09,17,07,27,12.30
2012,09,17,07,28,12.30
2012,09,17,07,29,12.40
2012,09,17,07,30,12.40
2012,09,17,07,31,12.50
2012,09,17,07,32,12.50
2012,09,17,07,33,12.60
2012,09,17,07,34,12.60
2012,09,17,07,35,12.70
2012,09,17,07,36,12.70
2012,09,17,07,37,12.80
2012,09,17,07,38,12.80
2012,09,17,07,39,12.80
2012,09,17,07,40,12.80
2012,09,17,07,41,12.80
2012,09,17,07,42,12.90
2012,09,17,07,43,12.90
2012,09,17,07,44,13.00
2012,09,17,07,45,13.00
2012,09,17,07,46,13.10
2012,09,17,07,47,13.10
2012,09,17,07,48,13.20
2012,09,17,07,49,13.20
2012,09,17,07,50,13.30
2012,09,17,07,51,13.30
2012,09,17,07,52,13.30
2012,09,17,07,53,13.40
2012,09,17,07,54,13.50
2012,09,17,07,55,13.60
2012,09,17,07,56,13.70
2012,09,17,07,57,13.70
2012,09,17,07,58,13.80
2012,09,17,07,59,13.90
2012,09,17,08,00,14.00
2012,09,17,08,01,14.10
2012,09,17,08,02,14.20
2012,09,17,08,03,14.30
2012,09,17,08,04,14.40
2012,09,17,08,05,14.50
2012,09,17,08,06,14.70
2012,09,17,08,07,14.80
2012,09,17,08,08,15.00
2012,09,17,08,09,15.10
2012,09,17,08,10,15.20
2012,09,17,08,11,15.30
2012,09,17,08,12,15.50
2012,09,17,08,13,15.60
2012,09,17,08,14,15.70
2012,09,17,08,15,15.80
2012,09,17,08,16,15.90
2012,09,17,08,17,16.00
2012,09,17,08,18,16.10
2012,09,17,08,19,16.10
2012,09,17,08,20,16.10
2012,09,17,08,21,16.10
2012,09,17,08,22,16.20
2012,09,17,08,23,16.20
2012,09,17,08,24,16.30
2012,09,17,08,25,16.30
2012,09,17,08,26,16.30
2012,09,17,08,27,16.40
2012,09,17,08,28,16.40
2012,09,17,08,29,16.40
2012,09,17,08,30,16.40
2012,09,17,08,31,16.40
2012,09,17,08,32,16.50
2012,09,17,08,33,16.60
2012,09,17,08,34,16.60
2012,09,17,08,35,16.60
2012,09,17,08,36,16.70
2012,09,17,08,37,16.70
2012,09,17,08,38,16.70
2012,09,17,08,39,16.70
2012,09,17,08,40,16.70
2012,09,17,08,41,16.70
2012,09,17,08,42,16.70
2012,09,17,08,43,16.70
2012,09,17,08,44,16.70
2012,09,17,08,45,16.60
2012,09,17,08,46,16.60
2012,09,17,08,47,16.60
2012,09,17,08,48,16.60
2012,09,17,08,49,16.60
2012,09,17,08,50,16.60
2012,09,17,08,51,16.70
2012,09,17,08,52,16.70
2012,09,17,08,53,16.70
2012,09,17,08,54,16.70
2012,09,17,08,55,16.80
2012,09,17,08,56,16.80
2012,09,17,08,57,16.90
2012,09,17,08,58,16.90
2012,09,17,08,59,16.90
2012,09,17,09,00,17.00
2012,09,17,09,01,17.00
2012,09,17,09,02,17.00
2012,09,17,09,03,17.10
2012,09,17,09,04,17.10
2012,09,17,09,05,17.20
2012,09,17,09,06,17.20
2012,09,17,09,07,17.30
2012,09,17,09,08,17.30
2012,09,17,09,09,17.30
2012,09,17,09,10,17.30
2012,09,17,09,11,17.30
2012,09,17,09,12,17.40
2012,09,17,09,13,17.40
2012,09,17,09,14,17.40
2012,09,17,09,15,17.40
2012,09,17,09,16,17.50
2012,09,17,09,17,17.50
2012,09,17,09,18,17.50
2012,09,17,09,19,17.50
2012,09,17,09,20,17.50
2012,09,17,09,21,17.50
2012,09,17,09,22,17.50
2012,09,17,09,23,17.60
2012,09,17,09,24,17.60
2012,09,17,09,25,17.60
2012,09,17,09,26,17.70
2012,09,17,09,27,17.70
2012,09,17,09,28,17.80
2012,09,17,09,29,17.80
2012,09,17,09,30,17.90
2012,09,17,09,31,17.90
2012,09,17,09,32,17.90
2012,09,17,09,33,18.00
2012,09,17,09,34,18.10
2012,09,17,09,35,18.10
2012,09,17,09,36,18.10
2012,09,17,09,37,18.10
2012,09,17,09,38,18.20
2012,09,17,09,39,18.20
2012,09,17,09,40,18.20
2012,09,17,09,41,18.20
2012,09,17,09,42,18.20
2012,09,17,09,43,18.20
2012,09,17,09,44,18.20
2012,09,17,09,45,18.30
2012,09,17,09,46,18.30
2012,09,17,09,47,18.40
2012,09,17,09,48,18.40
2012,09,17,09,49,18.40
2012,09,17,09,50,18.40
2012,09,17,09,51,18.40
2012,09,17,09,52,18.50
2012,09,17,09,53,18.50
2012,09,17,09,54,18.50
2012,09,17,09,55,18.60
2012,09,17,09,56,18.60
2012,09,17,09,57,18.70
2012,09,17,09,58,18.70
2012,09,17,09,59,18.70
2012,09,17,10,00,18.70
2012,09,17,10,01,18.70
2012,09,17,10,02,18.70
2012,09,17,10,03,18.60
2012,09,17,10,04,18.60
2012,09,17,10,05,18.60
2012,09,17,10,06,18.70
2012,09,17,10,07,18.70
2012,09,17,10,08,18.70
2012,09,17,10,09,18.70
2012,09,17,10,10,18.70
2012,09,17,10,11,18.70
2012,09,17,10,12,18.70
2012,09,17,10,13,18.80
2012,09,17,10,14,18.80
2012,09,17,10,15,18.90
2012,09,17,10,16,18.90
2012,09,17,10,17,18.90
2012,09,17,10,18,18.90
2012,09,17,10,19,18.90
2012,09,17,10,20,18.90
2012,09,17,10,21,18.90
2012,09,17,10,22,19.00
2012,09,17,10,23,19.10
2012,09,17,10,24,19.10
2012,09,17,10,25,19.10
2012,09,17,10,26,19.10
2012,09,17,10,27,19.10
2012,09,17,10,28,19.10
2012,09,17,10,29,19.10
2012,09,17,10,30,19.10
2012,09,17,10,31,19.20
2012,09,17,10,32,19.20
2012,09,17,10,33,19.20
2012,09,17,10,34,19.30
2012,09,17,10,35,19.30
2012,09,17,10,36,19.30
2012,09,17,10,37,19.30
2012,09,17,10,38,19.30
2012,09,17,10,39,19.40
2012,09,17,10,40,19.40
2012,09,17,10,41,19.50
2012,09,17,10,42,19.50
2012,09,17,10,43,19.60
2012,09,17,10,44,19.60
2012,09,17,10,45,19.70
2012,09,17,10,46,19.70
2012,09,17,10,47,19.70
2012,09,17,10,48,19.80
2012,09,17,10,49,19.80
2012,09,17,10,50,19.90
2012,09,17,10,51,19.90
2012,09,17,10,52,19.90
2012,09,17,10,53,19.90
2012,09,17,10,54,19.90
2012,09,17,10,55,19.90
2012,09,17,10,56,19.90
2012,09,17,10,57,19.90
2012,09,17,10,58,19.90
2012,09,17,10,59,19.90
2012,09,17,11,00,19.90
2012,09,17,11,01,19.90
2012,09,17,11,02,19.90
2012,09,17,11,03,20.00
2012,09,17,11,04,20.10
2012,09,17,11,05,20.20
2012,09,17,11,06,20.20
2012,09,17,11,07,20.20
2012,09,17,11,08,20.20
2012,09,17,11,09,20.20
2012,09,17,11,10,20.30
2012,09,17,11,11,20.30
2012,09,17,11,12,20.40
2012,09,17,11,13,20.50
2012,09,17,11,14,20.60
2012,09,17,11,15,20.60
2012,09,17,11,16,20.70
2012,09,17,11,17,20.70
2012,09,17,11,18,20.70
2012,09,17,11,19,20.70
2012,09,17,11,20,20.70
2012,09,17,11,21,20.60
2012,09,17,11,22,20.60
2012,09,17,11,23,20.50
2012,09,17,11,24,20.40
2012,09,17,11,25,20.40
2012,09,17,11,26,20.30
2012,09,17,11,27,20.30
2012,09,17,11,28,20.40
2012,09,17,11,29,20.50
2012,09,17,11,30,20.50
2012,09,17,11,31,20.60
2012,09,17,11,32,20.60
2012,09,17,11,33,20.70
2012,09,17,11,34,20.70
2012,09,17,11,35,20.80
2012,09,17,11,36,20.80
2012,09,17,11,37,20.80
2012,09,17,11,38,20.90
2012,09,17,11,39,20.90
2012,09,17,11,40,20.90
2012,09,17,11,41,20.90
2012,09,17,11,42,20.90
2012,09,17,11,43,20.90
2012,09,17,11,44,20.80
2012,09,17,11,45,20.80
2012,09,17,11,46,20.70
2012,09,17,11,47,20.70
2012,09,17,11,48,20.70
2012,09,17,11,49,20.80
2012,09,17,11,50,20.80
2012,09,17,11,51,20.90
2012,09,17,11,52,21.00
2012,09,17,11,53,21.10
2012,09,17,11,54,21.10
2012,09,17,11,55,21.20
2012,09,17,11,56,21.30
2012,09,17,11,57,21.30
2012,09,17,11,58,21.30
2012,09,17,11,59,21.30
2012,09,17,12,00,21.30
2012,09,17,12,01,21.30
2012,09,17,12,02,21.30
2012,09,17,12,03,21.30
2012,09,17,12,04,21.40
2012,09,17,12,05,21.40
2012,09,17,12,06,21.40
2012,09,17,12,07,21.40
2012,09,17,12,08,21.40
2012,09,17,12,09,21.30
2012,09,17,12,10,21.30
2012,09,17,12,11,21.40
2012,09,17,12,12,21.50
2012,09,17,12,13,21.60
2012,09,17,12,14,21.60
2012,09,17,12,15,21.60
2012,09,17,12,16,21.60
2012,09,17,12,17,21.60
2012,09,17,12,18,21.60
2012,09,17,12,19,21.60
2012,09,17,12,20,21.60
2012,09,17,12,21,21.60
2012,09,17,12,22,21.70
2012,09,17,12,23,21.70
2012,09,17,12,24,21.80
2012,09,17,12,25,21.80
2012,09,17,12,26,21.80
2012,09,17,12,27,21.80
2012,09,17,12,28,21.90
2012,09,17,12,29,21.90
2012,09,17,12,30,21.80
2012,09,17,12,31,21.80
2012,09,17,12,32,21.80
2012,09,17,12,33,21.70
2012,09,17,12,34,21.60
2012,09,17,12,35,21.60
2012,09,17,12,36,21.70
2012,09,17,12,37,21.70
2012,09,17,12,38,21.80
2012,09,17,12,39,22.00
2012,09,17,12,40,22.00
2012,09,17,12,41,22.00
2012,09,17,12,42,22.00
2012,09,17,12,43,22.00
2012,09,17,12,44,22.00
2012,09,17,12,45,22.00
2012,09,17,12,46,22.00
2012,09,17,12,47,22.00
2012,09,17,12,48,22.00
2012,09,17,12,49,22.00
2012,09,17,12,50,22.00
2012,09,17,12,51,22.00
2012,09,17,12,52,22.10
2012,09,17,12,53,22.10
2012,09,17,12,54,22.10
2012,09,17,12,55,22.10
2012,09,17,12,56,22.10
2012,09,17,12,57,22.10
2012,09,17,12,58,22.20
2012,09,17,12,59,22.20
2012,09,17,13,00,22.30
2012,09,17,13,01,22.40
2012,09,17,13,02,22.40
2012,09,17,13,03,22.40
2012,09,17,13,04,22.40
2012,09,17,13,05,22.30
2012,09,17,13,06,22.30
2012,09,17,13,07,22.30
2012,09,17,13,08,22.20
2012,09,17,13,09,22.30
2012,09,17,13,10,22.30
2012,09,17,13,11,22.20
2012,09,17,13,12,22.20
2012,09,17,13,13,22.10
2012,09,17,13,14,22.10
2012,09,17,13,15,22.00
2012,09,17,13,16,22.00
2012,09,17,13,17,22.00
2012,09,17,13,18,22.00
2012,09,17,13,19,22.00
2012,09,17,13,20,22.00
2012,09,17,13,21,22.00
2012,09,17,13,22,22.00
2012,09,17,13,23,22.00
2012,09,17,13,24,22.00
2012,09,17,13,25,22.00
2012,09,17,13,26,22.00
2012,09,17,13,27,22.00
2012,09,17,13,28,22.10
2012,09,17,13,29,22.10
2012,09,17,13,30,22.10
2012,09,17,13,31,22.10
2012,09,17,13,32,22.10
2012,09,17,13,33,22.10
2012,09,17,13,34,22.10
2012,09,17,13,35,22.10
2012,09,17,13,36,22.20
2012,09,17,13,37,22.20
2012,09,17,13,38,22.40
2012,09,17,13,39,22.50
2012,09,17,13,40,22.60
2012,09,17,13,41,22.70
2012,09,17,13,42,22.70
2012,09,17,13,43,22.70
2012,09,17,13,44,22.70
2012,09,17,13,45,22.70
2012,09,17,13,46,22.70
2012,09,17,13,47,22.60
2012,09,17,13,48,22.60
2012,09,17,13,49,22.60
2012,09,17,13,50,22.60
2012,09,17,13,51,22.70
2012,09,17,13,52,22.70
2012,09,17,13,53,22.70
2012,09,17,13,54,22.60
2012,09,17,13,55,22.60
2012,09,17,13,56,22.60
2012,09,17,13,57,22.60
2012,09,17,13,58,22.70
2012,09,17,13,59,22.80
2012,09,17,14,00,22.90
2012,09,17,14,01,22.90
2012,09,17,14,02,22.90
2012,09,17,14,03,22.90
2012,09,17,14,04,22.80
2012,09,17,14,05,22.80
2012,09,17,14,06,22.80
2012,09,17,14,07,22.80
2012,09,17,14,08,22.80
2012,09,17,14,09,22.80
2012,09,17,14,10,22.90
2012,09,17,14,11,23.00
2012,09,17,14,12,23.10
2012,09,17,14,13,23.30
2012,09,17,14,14,23.30
2012,09,17,14,15,23.40
2012,09,17,14,16,23.40
2012,09,17,14,17,23.30
2012,09,17,14,18,23.30
2012,09,17,14,19,23.30
2012,09,17,14,20,23.30
2012,09,17,14,21,23.30
2012,09,17,14,22,23.30
2012,09,17,14,23,23.30
2012,09,17,14,24,23.30
2012,09,17,14,25,23.30
2012,09,17,14,26,23.20
2012,09,17,14,27,23.20
2012,09,17,14,28,23.10
2012,09,17,14,29,23.10
2012,09,17,14,30,23.10
2012,09,17,14,31,23.10
2012,09,17,14,32,23.20
2012,09,17,14,33,23.30
2012,09,17,14,34,23.30
2012,09,17,14,35,23.20
2012,09,17,14,36,23.20
2012,09,17,14,37,23.20
2012,09,17,14,38,23.20
2012,09,17,14,39,23.20
2012,09,17,14,40,23.10
2012,09,17,14,41,23.00
2012,09,17,14,42,22.90
2012,09,17,14,43,23.10
2012,09,17,14,44,23.10
2012,09,17,14,45,23.10
2012,09,17,14,46,23.10
2012,09,17,14,47,23.20
2012,09,17,14,48,23.30
2012,09,17,14,49,23.40
2012,09,17,14,50,23.50
2012,09,17,14,51,23.60
2012,09,17,14,52,23.60
2012,09,17,14,53,23.70
2012,09,17,14,54,23.70
2012,09,17,14,55,23.70
2012,09,17,14,56,23.80
2012,09,17,14,57,23.80
2012,09,17,14,58,23.80
2012,09,17,14,59,23.70
2012,09,17,15,00,23.70
2012,09,17,15,01,23.60
2012,09,17,15,02,23.60
2012,09,17,15,03,23.60
2012,09,17,15,04,23.60
2012,09,17,15,05,23.60
2012,09,17,15,06,23.60
2012,09,17,15,07,23.50
2012,09,17,15,08,23.40
2012,09,17,15,09,23.40
2012,09,17,15,10,23.50
2012,09,17,15,11,23.60
2012,09,17,15,12,23.60
2012,09,17,15,13,23.60
2012,09,17,15,14,23.60
2012,09,17,15,15,23.60
2012,09,17,15,16,23.60
2012,09,17,15,17,23.70
2012,09,17,15,18,23.70
2012,09,17,15,19,23.70
2012,09,17,15,20,23.80
2012,09,17,15,21,23.80
2012,09,17,15,22,23.90
2012,09,17,15,23,23.90
2012,09,17,15,24,23.90
2012,09,17,15,25,23.80
2012,09,17,15,26,23.80
2012,09,17,15,27,23.80
2012,09,17,15,28,23.70
2012,09,17,15,29,23.70
2012,09,17,15,30,23.70
2012,09,17,15,31,23.70
2012,09,17,15,32,23.70
2012,09,17,15,33,23.70
2012,09,17,15,34,23.70
2012,09,17,15,35,23.70
2012,09,17,15,36,23.70
2012,09,17,15,37,23.70
2012,09,17,15,38,23.70
2012,09,17,15,39,23.50
2012,09,17,15,40,23.40
2012,09,17,15,41,23.40
2012,09,17,15,42,23.30
2012,09,17,15,43,23.40
2012,09,17,15,44,23.40
2012,09,17,15,45,23.40
2012,09,17,15,46,23.40
2012,09,17,15,47,23.40
2012,09,17,15,48,23.50
2012,09,17,15,49,23.60
2012,09,17,15,50,23.60
2012,09,17,15,51,23.70
2012,09,17,15,52,23.70
2012,09,17,15,53,23.70
2012,09,17,15,54,23.70
2012,09,17,15,55,23.70
2012,09,17,15,56,23.70
2012,09,17,15,57,23.70
2012,09,17,15,58,23.70
2012,09,17,15,59,23.60
2012,09,17,16,00,23.50
2012,09,17,16,01,23.40
2012,09,17,16,02,23.30
2012,09,17,16,03,23.30
2012,09,17,16,04,23.40
2012,09,17,16,05,23.40
2012,09,17,16,06,23.40
2012,09,17,16,07,23.40
2012,09,17,16,08,23.40
2012,09,17,16,09,23.40
2012,09,17,16,10,23.40
2012,09,17,16,11,23.40
2012,09,17,16,12,23.30
2012,09,17,16,13,23.30
2012,09,17,16,14,23.20
2012,09,17,16,15,23.20
2012,09,17,16,16,23.20
2012,09,17,16,17,23.20
2012,09,17,16,18,23.30
2012,09,17,16,19,23.30
2012,09,17,16,20,23.30
2012,09,17,16,21,23.30
2012,09,17,16,22,23.30
2012,09,17,16,23,23.30
2012,09,17,16,24,23.30
2012,09,17,16,25,23.30
2012,09,17,16,26,23.30
2012,09,17,16,27,23.30
2012,09,17,16,28,23.30
2012,09,17,16,29,23.30
2012,09,17,16,30,23.30
2012,09,17,16,31,23.30
2012,09,17,16,32,23.30
2012,09,17,16,33,23.30
2012,09,17,16,34,23.20
2012,09,17,16,35,23.10
2012,09,17,16,36,23.10
2012,09,17,16,37,23.10
2012,09,17,16,38,23.00
2012,09,17,16,39,22.90
2012,09,17,16,40,22.90
2012,09,17,16,41,22.90
2012,09,17,16,42,22.90
2012,09,17,16,43,22.90
2012,09,17,16,44,23.00
2012,09,17,16,45,23.10
2012,09,17,16,46,23.10
2012,09,17,16,47,23.20
2012,09,17,16,48,23.30
2012,09,17,16,49,23.30
2012,09,17,16,50,23.30
2012,09,17,16,51,23.40
2012,09,17,16,52,23.40
2012,09,17,16,53,23.40
2012,09,17,16,54,23.40
2012,09,17,16,55,23.30
2012,09,17,16,56,23.30
2012,09,17,16,57,23.30
2012,09,17,16,58,23.30
2012,09,17,16,59,23.30
2012,09,17,17,00,23.30
2012,09,17,17,01,23.40
2012,09,17,17,02,23.50
2012,09,17,17,03,23.60
2012,09,17,17,04,23.60
2012,09,17,17,05,23.60
2012,09,17,17,06,23.60
2012,09,17,17,07,23.60
2012,09,17,17,08,23.60
2012,09,17,17,09,23.50
2012,09,17,17,10,23.40
2012,09,17,17,11,23.40
2012,09,17,17,12,23.50
2012,09,17,17,13,23.60
2012,09,17,17,14,23.70
2012,09,17,17,15,23.70
2012,09,17,17,16,23.70
2012,09,17,17,17,23.70
2012,09,17,17,18,23.70
2012,09,17,17,19,23.70